Location: Crab Orchard
(37.7292°N, 88.8042°W)
Time: 09:52:39
(UTC+00:00)

Atlas Centaur 2 - Pass Details

Date: 08 December 2019
Orbit: 459 x 1310 km, 30.4° (Epoch: 26 January)

Event Time Altitude Azimuth Distance (km) Brightness Sun altitude
Rises 23:01:31 0° 265° (W) 3,748 7.2 -5.3°
Reaches altitude 10° 23:04:10 10° 259° (WSW) 2,912 6.6 -5.8°
Maximum altitude 23:11:04 44° 190° (S) 1,618 4.0 -7.0°
Drops below altitude 10° 23:18:55 10° 122° (ESE) 3,300 4.9 -8.5°
Sets 23:22:06 0° 116° (ESE) 4,289 5.5 -9.0°
